Waarnemingen

Advertentie
Mijn weer
Koksijde, België (6400): temperatuur & dauwpunt: 10.12.2017 18:00:00 - 16.12.2017 18:00:00 (CET)Koksijde, België (6400): windsnelheid & windstoten: 10.12.2017 18:00:00 - 16.12.2017 18:00:00 (CET)Koksijde, België (6400): windrichting: 10.12.2017 18:00:00 - 16.12.2017 18:00:00 (CET)Koksijde, België (6400): luchtdruk: 10.12.2017 18:00:00 - 16.12.2017 18:00:00 (CET)Koksijde, België (6400): zicht: 10.12.2017 18:00:00 - 16.12.2017 18:00:00 (CET)
Datum & Tijd tt [°C] td [°C] ff [km/u] ff [kn] fx [km/u] fx [kn] dd ppp [hPa] vv [km]
16.12.2017 18:00:00 - - - - - - - - -
16.12.2017 17:00:00 4,0 0,6 18 10 29 16 WNW 1018,3 20
16.12.2017 16:00:00 4,6 1,4 18 10 - - WNW 1017,7 20
16.12.2017 15:00:00 5,1 1,9 22 12 36 19 NW 1017,0 20
16.12.2017 14:00:00 5,1 2,7 18 10 36 19 WNW 1016,7 20
16.12.2017 13:00:00 5,0 3,1 25 14 - - NW 1016,2 20
16.12.2017 12:00:00 5,0 2,9 22 12 40 21 NW 1016,1 20
16.12.2017 11:00:00 5,0 3,0 22 12 32 18 NW 1015,6 20
16.12.2017 10:00:00 4,9 2,7 22 12 - - NNW 1014,6 20
16.12.2017 09:00:00 5,0 2,6 22 12 36 19 NNW 1013,6 20
16.12.2017 08:00:00 5,0 2,9 25 14 36 19 NNW 1012,7 20
16.12.2017 07:00:00 4,9 3,2 22 12 - - NNW 1011,7 20
16.12.2017 06:00:00 5,2 3,6 25 14 40 21 NNW 1010,8 19
16.12.2017 05:00:00 4,5 3,0 14 8 43 23 NNW 1010,2 20
16.12.2017 04:00:00 5,7 3,8 25 14 - - NNW 1009,2 19
16.12.2017 03:00:00 5,6 2,7 21 11 50 27 NNW 1008,5 6
16.12.2017 02:00:00 6,3 3,4 25 14 47 25 N 1007,2 19
16.12.2017 01:00:00 5,9 4,0 18 10 - - N 1006,3 17
16.12.2017 00:00:00 5,6 3,8 22 12 43 23 N 1005,6 17
15.12.2017 23:00:00 5,8 3,3 29 16 47 25 N 1004,5 20
15.12.2017 22:00:00 5,1 4,0 18 10 - - N 1003,7 13
15.12.2017 21:00:00 4,8 3,4 14 8 32 18 N 1002,7 20
15.12.2017 20:00:00 5,5 3,4 22 12 32 18 N 1001,5 20
15.12.2017 19:00:00 5,4 3,4 18 10 - - N 1000,0 20
15.12.2017 18:00:00 5,4 3,4 18 10 36 19 N 998,5 20
15.12.2017 17:00:00 5,3 3,6 22 12 40 21 N 997,3 15
15.12.2017 16:00:00 5,8 3,3 22 12 - - NNW 996,2 17
15.12.2017 15:00:00 5,8 4,2 18 10 40 21 WNW 995,5 20
15.12.2017 14:00:00 5,1 4,0 11 6 29 16 NW 995,1 15
15.12.2017 13:00:00 5,3 3,8 14 8 - - WNW 994,7 20
15.12.2017 12:00:00 4,4 4,3 7 4 18 10 WZW 994,4 15
15.12.2017 11:00:00 3,7 3,5 11 6 14 8 ZW 994,0 11
15.12.2017 10:00:00 2,7 2,7 4 2 - - N 993,1 7
15.12.2017 09:00:00 2,2 2,2 7 4 18 10 ZW 992,5 6
15.12.2017 08:00:00 1,8 1,8 7 4 14 8 ZW 992,1 18
15.12.2017 07:00:00 1,7 1,7 14 8 - - ZW 991,8 17
15.12.2017 06:00:00 1,7 1,7 14 8 22 12 ZW 991,8 20
15.12.2017 05:00:00 2,7 2,7 14 8 22 12 ZZW 991,4 20
15.12.2017 04:00:00 3,0 2,9 14 8 - - ZW 991,4 20
15.12.2017 03:00:00 3,0 3,0 18 10 25 14 ZW 990,8 20
15.12.2017 02:00:00 2,5 2,5 18 10 29 16 ZW 990,7 20
15.12.2017 01:00:00 1,2 1,1 11 6 - - Z 990,2 20
15.12.2017 00:00:00 0,8 0,8 7 4 14 8 ZZW 990,0 18
14.12.2017 23:00:00 1,3 1,3 11 6 18 10 ZZW 990,2 20
14.12.2017 22:00:00 1,8 1,8 14 8 - - ZW 990,4 20
14.12.2017 21:00:00 2,0 1,8 14 8 25 14 ZW 990,2 20
14.12.2017 20:00:00 2,7 2,2 18 10 25 14 ZZW 990,1 20
14.12.2017 19:00:00 2,2 1,7 11 6 - - ZZW 990,2 20
14.12.2017 18:00:00 3,0 2,4 11 6 25 14 ZZW 990,3 20
14.12.2017 17:00:00 3,7 2,9 18 10 25 14 Z 990,7 20
14.12.2017 16:00:00 4,6 3,0 14 8 - - ZZW 991,0 20
14.12.2017 15:00:00 6,3 2,9 14 8 47 25 WZW 991,8 20
14.12.2017 14:00:00 7,3 1,3 29 16 50 27 W 992,3 20
14.12.2017 13:00:00 7,4 2,1 36 19 - - W 993,3 20
14.12.2017 12:00:00 7,4 2,3 29 16 47 25 WZW 993,9 20
14.12.2017 11:00:00 7,0 1,1 32 18 54 29 W 994,3 20
14.12.2017 10:00:00 6,5 1,7 36 19 - - W 994,2 20
14.12.2017 09:00:00 5,9 1,7 32 18 54 29 W 994,1 20
14.12.2017 08:00:00 6,2 1,4 40 21 58 31 W 994,2 20
14.12.2017 07:00:00 6,3 2,1 40 21 - - W 994,4 20
14.12.2017 06:00:00 5,5 1,4 32 18 61 33 WZW 994,5 25
14.12.2017 05:00:00 5,5 1,4 47 25 68 37 W 994,4 20
14.12.2017 04:00:00 5,3 0,5 47 25 - - W 993,5 20
14.12.2017 03:00:00 5,3 1,3 54 29 86 47 W 992,1 20
14.12.2017 02:00:00 4,3 2,4 43 23 76 41 W 990,8 16
14.12.2017 01:00:00 3,7 3,5 14 8 - - WZW 990,1 20
14.12.2017 00:00:00 4,1 2,6 4 2 25 14 N 990,4 14
13.12.2017 23:00:00 5,0 2,1 18 10 40 21 WZW 991,1 20
13.12.2017 22:00:00 6,0 1,9 29 16 - - W 991,7 20
13.12.2017 21:00:00 6,4 2,4 36 19 61 33 WNW 991,3 20
13.12.2017 20:00:00 7,7 4,3 43 23 61 33 WNW 990,5 20
13.12.2017 19:00:00 7,0 6,9 25 14 - - ZW 990,3 5
13.12.2017 18:00:00 7,6 6,8 43 23 61 33 ZW 991,2 3,0
13.12.2017 17:00:00 7,5 7,4 25 14 32 18 ZZW 993,0 6
13.12.2017 16:00:00 7,1 7,1 22 12 - - ZZW 995,0 4,0
13.12.2017 15:00:00 6,8 6,7 22 12 29 16 ZZW 996,6 8
13.12.2017 14:00:00 7,0 6,3 14 8 25 14 ZZW 998,2 15
13.12.2017 13:00:00 7,3 6,1 18 10 - - ZW 999,5 10
13.12.2017 12:00:00 7,5 5,4 18 10 40 21 WZW 1000,2 18
13.12.2017 11:00:00 7,5 6,0 25 14 47 25 W 1000,5 10
13.12.2017 10:00:00 6,1 6,1 22 12 - - ZW 1000,2 10
13.12.2017 09:00:00 4,9 4,9 29 16 47 25 ZZW 1000,7 10
13.12.2017 08:00:00 4,5 4,5 32 18 43 23 ZZW 1001,8 15
13.12.2017 07:00:00 4,5 3,9 29 16 - - Z 1003,0 15
13.12.2017 06:00:00 4,4 3,4 32 18 47 25 Z 1003,8 15
13.12.2017 05:00:00 4,0 2,6 29 16 43 23 Z 1005,5 20
13.12.2017 04:00:00 3,2 2,3 29 16 - - Z 1007,1 10
13.12.2017 03:00:00 2,9 2,0 25 14 36 19 Z 1008,2 19
13.12.2017 02:00:00 2,5 1,8 22 12 32 18 Z 1009,0 19
13.12.2017 01:00:00 2,4 1,4 22 12 - - Z 1010,1 20
13.12.2017 00:00:00 2,1 1,1 18 10 29 16 Z 1011,0 20
12.12.2017 23:00:00 1,6 0,8 18 10 25 14 Z 1011,5 19
12.12.2017 22:00:00 1,3 0,5 14 8 - - ZZW 1012,5 19
12.12.2017 21:00:00 1,2 0,3 14 8 22 12 ZZW 1012,5 18
12.12.2017 20:00:00 1,5 0,5 11 6 18 10 Z 1012,6 19
12.12.2017 19:00:00 1,3 0,6 11 6 - - ZZW 1012,7 16
12.12.2017 18:00:00 2,1 1,0 14 8 14 8 ZZW 1012,1 18
12.12.2017 17:00:00 3,0 2,1 11 6 14 8 ZW 1012,0 13
12.12.2017 16:00:00 3,5 2,6 11 6 - - ZW 1011,6 13
12.12.2017 15:00:00 4,2 2,8 11 6 22 12 WZW 1010,6 19
12.12.2017 14:00:00 5,4 2,5 14 8 32 18 W 1010,1 19
12.12.2017 13:00:00 4,9 2,9 25 14 - - WZW 1009,6 9
12.12.2017 12:00:00 4,0 2,9 14 8 25 14 WZW 1009,3 11
12.12.2017 11:00:00 3,4 3,1 14 8 22 12 ZW 1008,7 5
12.12.2017 10:00:00 3,7 2,2 11 6 - - NW 1007,5 18
12.12.2017 09:00:00 3,4 2,1 11 6 32 18 WNW 1006,3 17
12.12.2017 08:00:00 3,4 1,8 18 10 36 19 WNW 1005,1 20
12.12.2017 07:00:00 3,9 2,0 22 12 - - WNW 1003,8 10
12.12.2017 06:00:00 4,0 1,0 18 10 32 18 NW 1002,5 20
12.12.2017 05:00:00 4,1 2,6 18 10 29 16 WNW 1001,0 20
12.12.2017 04:00:00 3,3 2,4 7 4 - - N 999,7 20
12.12.2017 03:00:00 3,2 1,7 14 8 32 18 WNW 997,8 20
12.12.2017 02:00:00 1,7 1,7 25 14 54 29 N 996,9 5
12.12.2017 01:00:00 3,7 2,0 22 12 - - WNW 994,7 19
12.12.2017 00:00:00 4,4 1,3 29 16 36 19 NW 993,0 4,9
11.12.2017 23:00:00 3,7 2,0 18 10 54 29 N 991,2 20
11.12.2017 22:00:00 4,1 0,6 29 16 - - N 989,2 20
11.12.2017 21:00:00 4,1 1,1 29 16 61 33 N 987,2 20
11.12.2017 20:00:00 3,5 0,7 40 21 68 37 N 985,5 20
11.12.2017 19:00:00 3,0 1,5 36 19 - - NNO 983,7 20
11.12.2017 18:00:00 2,4 1,2 47 25 76 41 NNO 981,6 19
11.12.2017 17:00:00 2,1 1,4 54 29 83 45 NNO 979,3 10
11.12.2017 16:00:00 1,2 1,2 58 31 - - NNO 977,7 5
11.12.2017 15:00:00 0,8 0,7 54 29 76 41 NNO 976,0 3,8
11.12.2017 14:00:00 0,5 0,4 50 27 68 37 NO 975,6 5
11.12.2017 13:00:00 0,2 0,1 43 23 - - NO 975,8 0,8
11.12.2017 12:00:00 0,1 0,1 43 23 65 35 ONO 976,1 3,0
11.12.2017 11:00:00 -0,1 -0,1 43 23 58 31 NO 976,7 0,7
11.12.2017 10:00:00 -0,2 -0,2 40 21 - - ONO 978,0 0,6
11.12.2017 09:00:00 -0,2 -0,2 32 18 47 25 ONO 978,7 0,6
11.12.2017 08:00:00 1,2 1,2 34 18 47 25 ONO 978,8 3,0
11.12.2017 07:00:00 2,3 2,0 29 16 - - ONO 979,0 8
11.12.2017 06:00:00 1,5 1,4 22 12 29 16 ONO 979,4 9
11.12.2017 05:00:00 0,8 0,7 14 8 18 10 ONO 980,7 9
11.12.2017 04:00:00 0,3 0,3 7 4 - - OZO 982,4 8
11.12.2017 03:00:00 0,0 0,0 4 2 7 4 N 982,8 6
11.12.2017 02:00:00 0,3 0,3 4 2 11 6 N 982,0 8
11.12.2017 01:00:00 0,8 0,5 4 2 - - N 982,6 16
11.12.2017 00:00:00 1,5 1,0 11 6 18 10 ZZW 982,5 20
10.12.2017 23:00:00 2,5 2,0 7 4 18 10 ZW 981,8 19
10.12.2017 22:00:00 4,1 2,2 7 4 - - WNW 981,6 20
10.12.2017 21:00:00 4,3 2,0 18 10 36 19 WNW 980,4 20
10.12.2017 20:00:00 3,9 2,4 25 14 50 27 WNW 979,4 13
10.12.2017 19:00:00 3,5 2,6 37 20 - - W 977,6 10
10.12.2017 18:00:00 3,9 2,5 43 23 65 35 W 975,9 18

tt = temperatuur
td = dauwpunt
ff = windsnelheid
fx = windstoten
dd = windrichting
ppp = luchtdruk
vv = zicht

Weerstations in de omgeving